Quick links : Home Page : Contact Us : Index : Site Map : Search Site : Ephemerides


(68359) 2001 OZ13

Orbital Elements

The following orbital elements are taken from MPO124267
 (68359) 2001 OZ13
Epoch 2007 Oct. 27.0 TT = JDT 2454400.5                 MPC
M 303.87024              (2000.0)            P               Q
n   0.52726419     Peri.   28.97902     -0.61251218     -0.77220016
a   1.5174598      Node    99.30566     +0.68824203     -0.62609348
e   0.1743865      Incl.    9.85632     +0.38878238     -0.10823062
P   1.87           H   17.6           G   0.15           U   3
From 95 observations at 5 oppositions, 1995-2006, mean residual 0".59.
An explanation of the orbital elements is available.

These orbital elements are also available in forms suitable for loading into a number of popular planetarium-type software programs.


Ephemeris

The following ephemeris is at intervals of five days. A daily ephemeris covering the same time interval is also available.

Personalized ephemerides for this (and other) objects may be generated using the Minor Planet & Comet Ephemeris Service.

Date    TT    R. A. (2000) Decl.     Delta      r     Elong.  Phase     V
2008 08 22    14 14.36   -08 36.4    1.751    1.614    65.2    34.7    21.3
 
2009 08 17    05 18.09   +15 14.9    1.577    1.463    64.6    38.7    21.0
2009 08 22    05 32.91   +15 34.0    1.535    1.450    65.7    39.5    20.9
2009 08 27    05 47.91   +15 49.2    1.494    1.438    66.9    40.3    20.8
2009 09 01    06 03.06   +16 00.4    1.453    1.426    68.0    41.0    20.8
2009 09 06    06 18.38   +16 07.7    1.413    1.414    69.1    41.8    20.7
2009 09 11    06 33.86   +16 10.9    1.374    1.402    70.2    42.5    20.7
2009 09 16    06 49.48   +16 10.1    1.335    1.390    71.3    43.3    20.6
2009 09 21    07 05.23   +16 05.3    1.296    1.378    72.4    44.0    20.6
2009 09 26    07 21.10   +15 56.7    1.258    1.367    73.4    44.7    20.5

Back to Observable Critical-List Minor Planets

MPC

Valid HTML 4.01!